contact:dominique.lefevre@mio.osupytheas.fr, maurice.libes@osupytheas.fr, didier.mallarino@osupytheas.fr
Project:EMSO http://www.emso-fr.org/EMSO-France
Depth: 2436.0 m
Title:EMSO Ligure Ouest : Data MII capteur CSTAR
DateTime,Latitude,Longitude,Instrument_Serial,Reference_Counts,Signal_Counts,Corrected_Signal_raw_counts,Calculated_Beam_c_inverse_meters,Internal_thermistor_counts
DateTime,Latitude,Longitude,Instrument_Serial,Reference_Counts,Signal_Counts,Corrected_Signal_raw_counts,Calculated_Beam_c_inverse_meters,Internal_thermistor_counts
2019-11-26T00:01:46,42.805,6.029,CST-1368DR,7286,10208,15300,0.082,551
2019-11-26T00:04:48,42.805,6.029,CST-1368DR,7286,10208,15299,0.082,551
2019-11-26T00:07:49,42.805,6.029,CST-1368DR,7286,10209,15301,0.082,550
2019-11-26T00:10:51,42.805,6.029,CST-1368DR,7286,10210,15302,0.081,551
2019-11-26T00:13:53,42.805,6.029,CST-1368DR,7286,10209,15300,0.082,551
2019-11-26T00:16:54,42.805,6.029,CST-1368DR,7286,10201,15289,0.085,551
2019-11-26T00:19:56,42.805,6.029,CST-1368DR,7286,10208,15299,0.082,551
2019-11-26T00:22:57,42.805,6.029,CST-1368DR,7286,10209,15301,0.082,551
2019-11-26T00:25:59,42.805,6.029,CST-1368DR,7286,10209,15301,0.082,551
2019-11-26T00:29:01,42.805,6.029,CST-1368DR,7286,10209,15300,0.082,551
2019-11-26T00:32:03,42.805,6.029,CST-1368DR,7286,10209,15301,0.082,551
2019-11-26T00:35:04,42.805,6.029,CST-1368DR,7286,10209,15301,0.082,550
2019-11-26T00:38:06,42.805,6.029,CST-1368DR,7286,10209,15301,0.082,550
2019-11-26T00:41:07,42.805,6.029,CST-1368DR,7286,10211,15303,0.081,551
2019-11-26T00:44:09,42.805,6.029,CST-1368DR,7286,10209,15300,0.082,551
2019-11-26T00:47:11,42.805,6.029,CST-1368DR,7286,10210,15302,0.081,551
2019-11-26T00:50:12,42.805,6.029,CST-1368DR,7286,10209,15301,0.082,550
2019-11-26T00:53:14,42.805,6.029,CST-1368DR,7286,10210,15302,0.081,551
2019-11-26T00:56:16,42.805,6.029,CST-1368DR,7286,10209,15301,0.082,551
2019-11-26T00:59:17,42.805,6.029,CST-1368DR,7286,10209,15301,0.082,551
2019-11-26T01:02:19,42.805,6.029,CST-1368DR,7286,10210,15302,0.081,551
2019-11-26T01:05:20,42.805,6.029,CST-1368DR,7286,10207,15298,0.082,551
2019-11-26T01:08:22,42.805,6.029,CST-1368DR,7286,10207,15297,0.083,551
2019-11-26T01:11:24,42.805,6.029,CST-1368DR,7286,10209,15301,0.082,551
2019-11-26T01:14:25,42.805,6.029,CST-1368DR,7286,10208,15299,0.082,551
2019-11-26T01:17:27,42.805,6.029,CST-1368DR,7286,10210,15302,0.081,551
2019-11-26T01:20:29,42.805,6.029,CST-1368DR,7286,10208,15300,0.082,551
2019-11-26T01:23:30,42.805,6.029,CST-1368DR,7286,10208,15299,0.082,551
2019-11-26T01:26:32,42.805,6.029,CST-1368DR,7286,10209,15301,0.082,551
2019-11-26T01:29:33,42.805,6.029,CST-1368DR,7286,10208,15300,0.082,551
2019-11-26T01:32:35,42.805,6.029,CST-1368DR,7286,10206,15297,0.083,550
2019-11-26T01:35:37,42.805,6.029,CST-1368DR,7286,10208,15299,0.082,551
2019-11-26T01:38:39,42.805,6.029,CST-1368DR,7286,10206,15296,0.083,551
2019-11-26T01:41:40,42.805,6.029,CST-1368DR,7286,10207,15298,0.082,551
2019-11-26T01:44:42,42.805,6.029,CST-1368DR,7286,10208,15299,0.082,551
2019-11-26T01:47:44,42.805,6.029,CST-1368DR,7286,10205,15295,0.083,551
2019-11-26T01:50:45,42.805,6.029,CST-1368DR,7286,10208,15299,0.082,551
2019-11-26T01:53:47,42.805,6.029,CST-1368DR,7286,10207,15297,0.083,551
2019-11-26T01:56:49,42.805,6.029,CST-1368DR,7286,10207,15297,0.083,551
2019-11-26T01:59:50,42.805,6.029,CST-1368DR,7286,10208,15299,0.082,551
2019-11-26T02:02:52,42.805,6.029,CST-1368DR,7286,10207,15298,0.082,551
2019-11-26T02:05:54,42.805,6.029,CST-1368DR,7286,10208,15299,0.082,551
2019-11-26T02:08:55,42.805,6.029,CST-1368DR,7286,10206,15297,0.083,551
2019-11-26T02:11:57,42.805,6.029,CST-1368DR,7286,10207,15297,0.083,551
2019-11-26T02:14:58,42.805,6.029,CST-1368DR,7286,10206,15296,0.083,551
2019-11-26T02:18:00,42.805,6.029,CST-1368DR,7286,10206,15297,0.083,551
2019-11-26T02:21:02,42.805,6.029,CST-1368DR,7286,10206,15297,0.083,551
2019-11-26T02:24:03,42.805,6.029,CST-1368DR,7286,10207,15297,0.083,551
2019-11-26T02:27:05,42.805,6.029,CST-1368DR,7286,10208,15299,0.082,550
2019-11-26T02:30:06,42.805,6.029,CST-1368DR,7286,10208,15300,0.082,551
2019-11-26T02:33:08,42.805,6.029,CST-1368DR,7286,10203,15291,0.084,551
2019-11-26T02:36:10,42.805,6.029,CST-1368DR,7286,10208,15299,0.082,551
2019-11-26T02:39:11,42.805,6.029,CST-1368DR,7286,10208,15299,0.082,551
2019-11-26T02:42:13,42.805,6.029,CST-1368DR,7286,10208,15299,0.082,551
2019-11-26T02:45:15,42.805,6.029,CST-1368DR,7286,10208,15299,0.082,551
2019-11-26T02:48:16,42.805,6.029,CST-1368DR,7286,10207,15298,0.082,551
2019-11-26T02:51:18,42.805,6.029,CST-1368DR,7286,10206,15297,0.083,551
2019-11-26T02:54:19,42.805,6.029,CST-1368DR,7286,10206,15297,0.083,551
2019-11-26T02:57:21,42.805,6.029,CST-1368DR,7286,10207,15298,0.082,551
2019-11-26T03:00:23,42.805,6.029,CST-1368DR,7286,10207,15298,0.082,550
2019-11-26T03:03:24,42.805,6.029,CST-1368DR,7286,10207,15298,0.082,551
2019-11-26T03:06:26,42.805,6.029,CST-1368DR,7286,10204,15293,0.084,551
2019-11-26T03:09:28,42.805,6.029,CST-1368DR,7286,10206,15297,0.083,551
2019-11-26T03:12:29,42.805,6.029,CST-1368DR,7286,10208,15299,0.082,551
2019-11-26T03:15:31,42.805,6.029,CST-1368DR,7286,10207,15297,0.083,551
2019-11-26T03:18:32,42.805,6.029,CST-1368DR,7286,10208,15299,0.082,551
2019-11-26T03:21:34,42.805,6.029,CST-1368DR,7286,10208,15299,0.082,551
2019-11-26T03:24:36,42.805,6.029,CST-1368DR,7286,10207,15297,0.083,551
2019-11-26T03:27:37,42.805,6.029,CST-1368DR,7286,10207,15297,0.083,550
2019-11-26T03:30:39,42.805,6.029,CST-1368DR,7286,10208,15299,0.082,551
2019-11-26T03:33:41,42.805,6.029,CST-1368DR,7286,10204,15293,0.084,551
2019-11-26T03:36:42,42.805,6.029,CST-1368DR,7286,10205,15295,0.083,551
2019-11-26T03:39:44,42.805,6.029,CST-1368DR,7286,10206,15296,0.083,551
2019-11-26T03:42:46,42.805,6.029,CST-1368DR,7286,10207,15297,0.083,551
2019-11-26T03:45:48,42.805,6.029,CST-1368DR,7286,10207,15298,0.082,551
2019-11-26T03:48:49,42.805,6.029,CST-1368DR,7286,10207,15298,0.082,551
2019-11-26T03:51:51,42.805,6.029,CST-1368DR,7286,10206,15297,0.083,551
2019-11-26T03:54:52,42.805,6.029,CST-1368DR,7286,10207,15298,0.082,551
2019-11-26T03:57:54,42.805,6.029,CST-1368DR,7286,10207,15297,0.083,551
2019-11-26T04:00:56,42.805,6.029,CST-1368DR,7286,10207,15298,0.082,551
2019-11-26T04:03:57,42.805,6.029,CST-1368DR,7285,10206,15298,0.082,551
2019-11-26T04:06:59,42.805,6.029,CST-1368DR,7286,10206,15296,0.083,551
2019-11-26T04:10:01,42.805,6.029,CST-1368DR,7286,10206,15297,0.083,551
2019-11-26T04:13:02,42.805,6.029,CST-1368DR,7286,10207,15297,0.083,551
2019-11-26T04:16:04,42.805,6.029,CST-1368DR,7286,10206,15296,0.083,550
2019-11-26T04:19:05,42.805,6.029,CST-1368DR,7285,10204,15295,0.083,551
2019-11-26T04:22:07,42.805,6.029,CST-1368DR,7285,10206,15298,0.082,551
2019-11-26T04:25:09,42.805,6.029,CST-1368DR,7285,10207,15299,0.082,551
2019-11-26T04:28:11,42.805,6.029,CST-1368DR,7285,10207,15299,0.082,551
2019-11-26T04:31:12,42.805,6.029,CST-1368DR,7285,10206,15299,0.082,551
2019-11-26T04:34:14,42.805,6.029,CST-1368DR,7285,10207,15300,0.082,551
2019-11-26T04:37:16,42.805,6.029,CST-1368DR,7285,10204,15295,0.083,551
2019-11-26T04:40:17,42.805,6.029,CST-1368DR,7286,10206,15296,0.083,550
2019-11-26T04:43:19,42.805,6.029,CST-1368DR,7285,10206,15298,0.082,551
2019-11-26T04:46:21,42.805,6.029,CST-1368DR,7285,10207,15299,0.082,550
2019-11-26T04:49:22,42.805,6.029,CST-1368DR,7285,10206,15298,0.082,551
2019-11-26T04:52:24,42.805,6.029,CST-1368DR,7285,10206,15298,0.082,551
2019-11-26T04:55:25,42.805,6.029,CST-1368DR,7285,10205,15296,0.083,551
2019-11-26T04:58:27,42.805,6.029,CST-1368DR,7285,10206,15298,0.082,551
2019-11-26T05:01:29,42.805,6.029,CST-1368DR,7285,10207,15299,0.082,551
2019-11-26T05:04:30,42.805,6.029,CST-1368DR,7285,10207,15299,0.082,551
2019-11-26T05:07:32,42.805,6.029,CST-1368DR,7285,10207,15299,0.082,551
2019-11-26T05:10:34,42.805,6.029,CST-1368DR,7285,10206,15299,0.082,551
2019-11-26T05:13:35,42.805,6.029,CST-1368DR,7285,10207,15299,0.082,551
2019-11-26T05:16:37,42.805,6.029,CST-1368DR,7285,10206,15299,0.082,551
2019-11-26T05:19:38,42.805,6.029,CST-1368DR,7285,10207,15300,0.082,551
2019-11-26T05:22:40,42.805,6.029,CST-1368DR,7285,10207,15299,0.082,550
2019-11-26T05:25:42,42.805,6.029,CST-1368DR,7285,10205,15296,0.083,551
2019-11-26T05:28:43,42.805,6.029,CST-1368DR,7285,10206,15299,0.082,551
2019-11-26T05:31:45,42.805,6.029,CST-1368DR,7285,10206,15298,0.082,551
2019-11-26T05:34:47,42.805,6.029,CST-1368DR,7285,10207,15300,0.082,551
2019-11-26T05:37:48,42.805,6.029,CST-1368DR,7285,10207,15299,0.082,551
2019-11-26T05:40:50,42.805,6.029,CST-1368DR,7285,10206,15299,0.082,550
2019-11-26T05:43:51,42.805,6.029,CST-1368DR,7285,10206,15298,0.082,551
2019-11-26T05:46:53,42.805,6.029,CST-1368DR,7285,10207,15299,0.082,551
2019-11-26T05:49:55,42.805,6.029,CST-1368DR,7285,10203,15294,0.083,550
2019-11-26T05:52:57,42.805,6.029,CST-1368DR,7285,10207,15299,0.082,551
2019-11-26T05:55:58,42.805,6.029,CST-1368DR,7285,10207,15299,0.082,551
2019-11-26T05:59:00,42.805,6.029,CST-1368DR,7285,10206,15298,0.082,551
2019-11-26T06:02:02,42.805,6.029,CST-1368DR,7285,10206,15298,0.082,551
2019-11-26T06:05:03,42.805,6.029,CST-1368DR,7285,10207,15299,0.082,551
2019-11-26T06:08:05,42.805,6.029,CST-1368DR,7285,10207,15299,0.082,551
2019-11-26T06:11:07,42.805,6.029,CST-1368DR,7285,10207,15299,0.082,551
2019-11-26T06:14:08,42.805,6.029,CST-1368DR,7285,10206,15298,0.082,551
2019-11-26T06:17:10,42.805,6.029,CST-1368DR,7285,10206,15298,0.082,551
2019-11-26T06:20:12,42.805,6.029,CST-1368DR,7285,10204,15296,0.083,550
2019-11-26T06:23:13,42.805,6.029,CST-1368DR,7285,10203,15294,0.083,551
2019-11-26T06:26:15,42.805,6.029,CST-1368DR,7285,10206,15298,0.082,551
2019-11-26T06:29:17,42.805,6.029,CST-1368DR,7285,10206,15298,0.082,551
2019-11-26T06:32:18,42.805,6.029,CST-1368DR,7285,10207,15300,0.082,551
2019-11-26T06:35:20,42.805,6.029,CST-1368DR,7285,10206,15298,0.082,551
2019-11-26T06:38:21,42.805,6.029,CST-1368DR,7285,10206,15298,0.082,551
2019-11-26T06:41:23,42.805,6.029,CST-1368DR,7285,10206,15299,0.082,551
2019-11-26T06:44:25,42.805,6.029,CST-1368DR,7285,10206,15298,0.082,551
2019-11-26T06:47:26,42.805,6.029,CST-1368DR,7285,10205,15297,0.083,551
2019-11-26T06:50:28,42.805,6.029,CST-1368DR,7285,10207,15299,0.082,551
2019-11-26T06:53:30,42.805,6.029,CST-1368DR,7285,10206,15298,0.082,551
2019-11-26T06:56:31,42.805,6.029,CST-1368DR,7285,10207,15299,0.082,551
2019-11-26T06:59:34,42.805,6.029,CST-1368DR,7285,10205,15297,0.083,551
2019-11-26T07:02:35,42.805,6.029,CST-1368DR,7285,10206,15298,0.082,551
2019-11-26T07:05:37,42.805,6.029,CST-1368DR,7285,10205,15297,0.083,551
2019-11-26T07:08:38,42.805,6.029,CST-1368DR,7285,10206,15298,0.082,551
2019-11-26T07:11:40,42.805,6.029,CST-1368DR,7285,10205,15297,0.083,551
2019-11-26T07:14:42,42.805,6.029,CST-1368DR,7285,10206,15298,0.082,551
2019-11-26T07:17:43,42.805,6.029,CST-1368DR,7285,10206,15298,0.082,551
2019-11-26T07:20:45,42.805,6.029,CST-1368DR,7285,10205,15297,0.083,551
2019-11-26T07:23:47,42.805,6.029,CST-1368DR,7284,10205,15299,0.082,551
2019-11-26T07:26:48,42.805,6.029,CST-1368DR,7285,10206,15298,0.082,551
2019-11-26T07:29:50,42.805,6.029,CST-1368DR,7284,10203,15296,0.083,551
2019-11-26T07:32:52,42.805,6.029,CST-1368DR,7285,10207,15299,0.082,551
2019-11-26T07:35:53,42.805,6.029,CST-1368DR,7284,10205,15298,0.082,551
2019-11-26T07:38:55,42.805,6.029,CST-1368DR,7284,10206,15300,0.082,551
2019-11-26T07:41:57,42.805,6.029,CST-1368DR,7284,10207,15301,0.082,551
2019-11-26T07:44:58,42.805,6.029,CST-1368DR,7284,10207,15301,0.082,551
2019-11-26T07:48:00,42.805,6.029,CST-1368DR,7284,10205,15299,0.082,551
2019-11-26T07:51:01,42.805,6.029,CST-1368DR,7284,10206,15300,0.082,551
2019-11-26T07:54:03,42.805,6.029,CST-1368DR,7284,10205,15298,0.082,551
2019-11-26T07:57:05,42.805,6.029,CST-1368DR,7284,10202,15295,0.083,551
2019-11-26T08:00:06,42.805,6.029,CST-1368DR,7284,10206,15299,0.082,551
2019-11-26T08:03:08,42.805,6.029,CST-1368DR,7284,10205,15298,0.082,551
2019-11-26T08:06:10,42.805,6.029,CST-1368DR,7284,10204,15297,0.083,551
2019-11-26T08:09:11,42.805,6.029,CST-1368DR,7284,10205,15299,0.082,551
2019-11-26T08:12:13,42.805,6.029,CST-1368DR,7284,10206,15300,0.082,551
2019-11-26T08:15:15,42.805,6.029,CST-1368DR,7284,10206,15300,0.082,551
2019-11-26T08:18:16,42.805,6.029,CST-1368DR,7284,10204,15298,0.082,550
2019-11-26T08:21:18,42.805,6.029,CST-1368DR,7284,10207,15301,0.082,551
2019-11-26T08:24:19,42.805,6.029,CST-1368DR,7284,10204,15297,0.083,551
2019-11-26T08:27:21,42.805,6.029,CST-1368DR,7284,10206,15299,0.082,551
2019-11-26T08:30:23,42.805,6.029,CST-1368DR,7284,10205,15299,0.082,551
2019-11-26T08:33:24,42.805,6.029,CST-1368DR,7284,10201,15292,0.084,551
2019-11-26T08:36:26,42.805,6.029,CST-1368DR,7284,10206,15300,0.082,551
2019-11-26T08:39:28,42.805,6.029,CST-1368DR,7284,10206,15301,0.082,551
2019-11-26T08:42:29,42.805,6.029,CST-1368DR,7284,10204,15296,0.083,551
2019-11-26T08:45:31,42.805,6.029,CST-1368DR,7284,10200,15290,0.084,551
2019-11-26T08:48:32,42.805,6.029,CST-1368DR,7284,10203,15296,0.083,551
2019-11-26T08:51:34,42.805,6.029,CST-1368DR,7284,10205,15298,0.082,551
2019-11-26T08:54:36,42.805,6.029,CST-1368DR,7284,10207,15301,0.082,551
2019-11-26T08:57:37,42.805,6.029,CST-1368DR,7284,10206,15300,0.082,551
2019-11-26T09:00:39,42.805,6.029,CST-1368DR,7284,10206,15299,0.082,551
2019-11-26T09:03:41,42.805,6.029,CST-1368DR,7284,10205,15299,0.082,551
2019-11-26T09:06:42,42.805,6.029,CST-1368DR,7284,10206,15301,0.082,551
2019-11-26T09:09:44,42.805,6.029,CST-1368DR,7284,10206,15300,0.082,551
2019-11-26T09:12:45,42.805,6.029,CST-1368DR,7284,10206,15301,0.082,551
2019-11-26T09:15:47,42.805,6.029,CST-1368DR,7284,10205,15299,0.082,551
2019-11-26T09:18:49,42.805,6.029,CST-1368DR,7284,10203,15296,0.083,551
2019-11-26T09:21:50,42.805,6.029,CST-1368DR,7284,10205,15299,0.082,551
2019-11-26T09:24:52,42.805,6.029,CST-1368DR,7284,10206,15300,0.082,551
2019-11-26T09:27:53,42.805,6.029,CST-1368DR,7284,10206,15301,0.082,551
2019-11-26T09:30:55,42.805,6.029,CST-1368DR,7284,10206,15301,0.082,551
2019-11-26T09:33:57,42.805,6.029,CST-1368DR,7284,10205,15298,0.082,551
2019-11-26T09:36:58,42.805,6.029,CST-1368DR,7284,10205,15298,0.082,551
2019-11-26T09:40:00,42.805,6.029,CST-1368DR,7284,10205,15298,0.082,551
2019-11-26T09:43:02,42.805,6.029,CST-1368DR,7284,10204,15298,0.082,551
2019-11-26T09:46:03,42.805,6.029,CST-1368DR,7284,10204,15297,0.083,551
2019-11-26T09:49:05,42.805,6.029,CST-1368DR,7284,10205,15298,0.082,551
2019-11-26T09:52:06,42.805,6.029,CST-1368DR,7284,10204,15297,0.083,551
2019-11-26T09:55:08,42.805,6.029,CST-1368DR,7284,10204,15296,0.083,551
2019-11-26T09:58:10,42.805,6.029,CST-1368DR,7284,10205,15298,0.082,551
2019-11-26T10:01:12,42.805,6.029,CST-1368DR,7284,10204,15298,0.082,551
2019-11-26T10:04:13,42.805,6.029,CST-1368DR,7284,10203,15296,0.083,551
2019-11-26T10:07:15,42.805,6.029,CST-1368DR,7284,10205,15299,0.082,551
2019-11-26T10:10:17,42.805,6.029,CST-1368DR,7284,10205,15298,0.082,551
2019-11-26T10:13:18,42.805,6.029,CST-1368DR,7284,10205,15298,0.082,551
2019-11-26T10:16:20,42.805,6.029,CST-1368DR,7284,10204,15298,0.082,551
2019-11-26T10:19:22,42.805,6.029,CST-1368DR,7284,10205,15299,0.082,551
2019-11-26T10:22:23,42.805,6.029,CST-1368DR,7284,10205,15298,0.082,551
2019-11-26T10:25:25,42.805,6.029,CST-1368DR,7284,10205,15298,0.082,551
2019-11-26T10:28:27,42.805,6.029,CST-1368DR,7284,10205,15298,0.082,551
2019-11-26T10:31:28,42.805,6.029,CST-1368DR,7284,10204,15297,0.083,551
2019-11-26T10:34:30,42.805,6.029,CST-1368DR,7284,10206,15300,0.082,551
2019-11-26T10:37:32,42.805,6.029,CST-1368DR,7284,10204,15298,0.082,551
2019-11-26T10:40:33,42.805,6.029,CST-1368DR,7284,10205,15299,0.082,551
2019-11-26T10:43:35,42.805,6.029,CST-1368DR,7284,10206,15300,0.082,551
2019-11-26T10:46:37,42.805,6.029,CST-1368DR,7284,10204,15297,0.083,551
2019-11-26T10:49:38,42.805,6.029,CST-1368DR,7284,10203,15296,0.083,551
2019-11-26T10:52:40,42.805,6.029,CST-1368DR,7284,10204,15297,0.083,551
2019-11-26T10:55:42,42.805,6.029,CST-1368DR,7284,10202,15294,0.083,551
2019-11-26T10:58:43,42.805,6.029,CST-1368DR,7284,10204,15297,0.083,551
2019-11-26T11:01:45,42.805,6.029,CST-1368DR,7284,10205,15299,0.082,551
2019-11-26T11:04:46,42.805,6.029,CST-1368DR,7284,10204,15296,0.083,551
2019-11-26T11:07:48,42.805,6.029,CST-1368DR,7284,10203,15295,0.083,551
2019-11-26T11:10:50,42.805,6.029,CST-1368DR,7283,10204,15300,0.082,551
2019-11-26T11:13:51,42.805,6.029,CST-1368DR,7284,10205,15298,0.082,551
2019-11-26T11:16:53,42.805,6.029,CST-1368DR,7284,10204,15298,0.082,551
2019-11-26T11:19:55,42.805,6.029,CST-1368DR,7284,10205,15298,0.082,551
2019-11-26T11:22:56,42.805,6.029,CST-1368DR,7283,10205,15300,0.082,551
2019-11-26T11:25:58,42.805,6.029,CST-1368DR,7283,10204,15300,0.082,551
2019-11-26T11:29:00,42.805,6.029,CST-1368DR,7283,10205,15300,0.082,551
2019-11-26T11:32:01,42.805,6.029,CST-1368DR,7283,10205,15300,0.082,551
2019-11-26T11:35:03,42.805,6.029,CST-1368DR,7283,10204,15299,0.082,551
2019-11-26T11:38:05,42.805,6.029,CST-1368DR,7283,10202,15296,0.083,551
2019-11-26T11:41:06,42.805,6.029,CST-1368DR,7283,10197,15288,0.085,551
2019-11-26T11:44:08,42.805,6.029,CST-1368DR,7283,10201,15295,0.083,551
2019-11-26T11:47:10,42.805,6.029,CST-1368DR,7283,10204,15299,0.082,551
2019-11-26T11:50:11,42.805,6.029,CST-1368DR,7283,10204,15300,0.082,551
2019-11-26T11:53:13,42.805,6.029,CST-1368DR,7283,10205,15300,0.082,551
2019-11-26T11:56:15,42.805,6.029,CST-1368DR,7283,10205,15300,0.082,551
2019-11-26T11:59:16,42.805,6.029,CST-1368DR,7283,10205,15300,0.082,551
2019-11-26T12:02:18,42.805,6.029,CST-1368DR,7283,10201,15295,0.083,551
2019-11-26T12:05:19,42.805,6.029,CST-1368DR,7283,10205,15301,0.082,551
2019-11-26T12:08:21,42.805,6.029,CST-1368DR,7283,10204,15299,0.082,551
2019-11-26T12:11:23,42.805,6.029,CST-1368DR,7283,10203,15297,0.083,551
2019-11-26T12:14:24,42.805,6.029,CST-1368DR,7283,10203,15298,0.082,550
2019-11-26T12:17:26,42.805,6.029,CST-1368DR,7283,10203,15297,0.083,551
2019-11-26T12:20:28,42.805,6.029,CST-1368DR,7283,10204,15299,0.082,551
2019-11-26T12:23:29,42.805,6.029,CST-1368DR,7283,10202,15295,0.083,551
2019-11-26T12:26:31,42.805,6.029,CST-1368DR,7283,10202,15297,0.083,551
2019-11-26T12:29:34,42.805,6.029,CST-1368DR,7283,10202,15295,0.083,551
2019-11-26T12:32:35,42.805,6.029,CST-1368DR,7283,10205,15300,0.082,551
2019-11-26T12:35:37,42.805,6.029,CST-1368DR,7283,10204,15299,0.082,551
2019-11-26T12:38:39,42.805,6.029,CST-1368DR,7283,10201,15295,0.083,551
2019-11-26T12:41:40,42.805,6.029,CST-1368DR,7283,10204,15299,0.082,551
2019-11-26T12:44:42,42.805,6.029,CST-1368DR,7283,10205,15300,0.082,551
2019-11-26T12:47:43,42.805,6.029,CST-1368DR,7283,10205,15301,0.082,550
2019-11-26T12:50:45,42.805,6.029,CST-1368DR,7283,10204,15298,0.082,551
2019-11-26T12:53:47,42.805,6.029,CST-1368DR,7283,10204,15299,0.082,551
2019-11-26T12:56:49,42.805,6.029,CST-1368DR,7283,10205,15300,0.082,551
2019-11-26T12:59:50,42.805,6.029,CST-1368DR,7283,10204,15299,0.082,551
2019-11-26T13:02:52,42.805,6.029,CST-1368DR,7283,10205,15300,0.082,551
2019-11-26T13:05:54,42.805,6.029,CST-1368DR,7283,10205,15301,0.082,551
2019-11-26T13:08:56,42.805,6.029,CST-1368DR,7283,10204,15300,0.082,551
2019-11-26T13:11:57,42.805,6.029,CST-1368DR,7283,10204,15300,0.082,551
2019-11-26T13:14:59,42.805,6.029,CST-1368DR,7283,10203,15298,0.082,551
2019-11-26T13:18:00,42.805,6.029,CST-1368DR,7283,10203,15298,0.082,551
2019-11-26T13:21:02,42.805,6.029,CST-1368DR,7283,10203,15297,0.083,551
2019-11-26T13:24:04,42.805,6.029,CST-1368DR,7283,10204,15299,0.082,551
2019-11-26T13:27:05,42.805,6.029,CST-1368DR,7283,10202,15297,0.083,551
2019-11-26T13:30:07,42.805,6.029,CST-1368DR,7283,10204,15300,0.082,551
2019-11-26T13:33:09,42.805,6.029,CST-1368DR,7283,10202,15297,0.083,551
2019-11-26T13:36:10,42.805,6.029,CST-1368DR,7283,10204,15299,0.082,551
2019-11-26T13:39:12,42.805,6.029,CST-1368DR,7283,10203,15297,0.083,551
2019-11-26T13:42:13,42.805,6.029,CST-1368DR,7283,10204,15300,0.082,551
2019-11-26T13:45:15,42.805,6.029,CST-1368DR,7283,10204,15299,0.082,551
2019-11-26T13:48:17,42.805,6.029,CST-1368DR,7283,10203,15298,0.082,551
2019-11-26T13:51:18,42.805,6.029,CST-1368DR,7283,10204,15299,0.082,551
2019-11-26T13:54:20,42.805,6.029,CST-1368DR,7283,10202,15297,0.083,551
2019-11-26T13:57:22,42.805,6.029,CST-1368DR,7283,10203,15297,0.083,551
2019-11-26T14:00:23,42.805,6.029,CST-1368DR,7282,10202,15297,0.083,551
2019-11-26T14:03:25,42.805,6.029,CST-1368DR,7282,10201,15296,0.083,550
2019-11-26T14:06:26,42.805,6.029,CST-1368DR,7283,10200,15294,0.083,551
2019-11-26T14:09:28,42.805,6.029,CST-1368DR,7283,10204,15298,0.082,551
2019-11-26T14:12:30,42.805,6.029,CST-1368DR,7282,10203,15299,0.082,551
2019-11-26T14:15:31,42.805,6.029,CST-1368DR,7283,10203,15298,0.082,551
2019-11-26T14:18:33,42.805,6.029,CST-1368DR,7282,10203,15299,0.082,551
2019-11-26T14:21:35,42.805,6.029,CST-1368DR,7283,10204,15299,0.082,551
2019-11-26T14:24:36,42.805,6.029,CST-1368DR,7283,10198,15290,0.084,551
2019-11-26T14:27:38,42.805,6.029,CST-1368DR,7283,10204,15299,0.082,551
2019-11-26T14:30:40,42.805,6.029,CST-1368DR,7282,10203,15300,0.082,551
2019-11-26T14:33:41,42.805,6.029,CST-1368DR,7282,10203,15300,0.082,551
2019-11-26T14:36:43,42.805,6.029,CST-1368DR,7282,10200,15295,0.083,551
2019-11-26T14:39:45,42.805,6.029,CST-1368DR,7282,10204,15301,0.082,551
2019-11-26T14:42:46,42.805,6.029,CST-1368DR,7282,10201,15296,0.083,551
2019-11-26T14:45:48,42.805,6.029,CST-1368DR,7282,10202,15298,0.082,551
2019-11-26T14:48:49,42.805,6.029,CST-1368DR,7282,10204,15301,0.082,551
2019-11-26T14:51:51,42.805,6.029,CST-1368DR,7282,10203,15300,0.082,551
2019-11-26T14:54:53,42.805,6.029,CST-1368DR,7282,10202,15298,0.082,551
2019-11-26T14:57:55,42.805,6.029,CST-1368DR,7282,10204,15301,0.082,551
2019-11-26T15:00:56,42.805,6.029,CST-1368DR,7282,10204,15301,0.082,551
2019-11-26T15:03:58,42.805,6.029,CST-1368DR,7282,10203,15299,0.082,551
2019-11-26T15:06:59,42.805,6.029,CST-1368DR,7282,10203,15299,0.082,551
2019-11-26T15:10:01,42.805,6.029,CST-1368DR,7282,10200,15296,0.083,550
2019-11-26T15:13:03,42.805,6.029,CST-1368DR,7282,10203,15300,0.082,551
2019-11-26T15:16:04,42.805,6.029,CST-1368DR,7282,10204,15300,0.082,551
2019-11-26T15:19:06,42.805,6.029,CST-1368DR,7282,10198,15293,0.084,551
2019-11-26T15:22:08,42.805,6.029,CST-1368DR,7282,10203,15300,0.082,551
2019-11-26T15:25:09,42.805,6.029,CST-1368DR,7282,10203,15300,0.082,551
2019-11-26T15:28:11,42.805,6.029,CST-1368DR,7282,10203,15300,0.082,551
2019-11-26T15:31:13,42.805,6.029,CST-1368DR,7282,10201,15297,0.083,551
2019-11-26T15:34:14,42.805,6.029,CST-1368DR,7282,10202,15299,0.082,551
2019-11-26T15:37:16,42.805,6.029,CST-1368DR,7282,10201,15297,0.083,551
2019-11-26T15:40:18,42.805,6.029,CST-1368DR,7282,10200,15296,0.083,551
2019-11-26T15:43:20,42.805,6.029,CST-1368DR,7282,10203,15300,0.082,551
2019-11-26T15:46:21,42.805,6.029,CST-1368DR,7282,10201,15297,0.083,551
2019-11-26T15:49:23,42.805,6.029,CST-1368DR,7282,10203,15300,0.082,551
2019-11-26T15:52:25,42.805,6.029,CST-1368DR,7282,10202,15299,0.082,551
2019-11-26T15:55:26,42.805,6.029,CST-1368DR,7282,10203,15300,0.082,551
2019-11-26T15:58:28,42.805,6.029,CST-1368DR,7282,10203,15300,0.082,551
2019-11-26T16:01:30,42.805,6.029,CST-1368DR,7282,10203,15299,0.082,551
2019-11-26T16:04:31,42.805,6.029,CST-1368DR,7282,10201,15297,0.083,551
2019-11-26T16:07:33,42.805,6.029,CST-1368DR,7282,10202,15297,0.083,550
2019-11-26T16:10:35,42.805,6.029,CST-1368DR,7282,10203,15300,0.082,551
2019-11-26T16:13:36,42.805,6.029,CST-1368DR,7282,10202,15298,0.082,551
2019-11-26T16:16:38,42.805,6.029,CST-1368DR,7282,10203,15299,0.082,550
2019-11-26T16:19:39,42.805,6.029,CST-1368DR,7282,10202,15299,0.082,551
2019-11-26T16:22:41,42.805,6.029,CST-1368DR,7282,10200,15295,0.083,551
2019-11-26T16:25:43,42.805,6.029,CST-1368DR,7282,10201,15297,0.083,551
2019-11-26T16:28:44,42.805,6.029,CST-1368DR,7282,10202,15299,0.082,551
2019-11-26T16:31:46,42.805,6.029,CST-1368DR,7282,10203,15299,0.082,551
2019-11-26T16:34:47,42.805,6.029,CST-1368DR,7282,10202,15299,0.082,551
2019-11-26T16:37:49,42.805,6.029,CST-1368DR,7282,10203,15299,0.082,551